Location: Diebersbach
(48.5163°N, 8.0558°E)
Time: 19:24:13
(UTC+00:00)

Cosmos 1825 - Pass Details

Date: 06 November 2021
Orbit: 501 x 504 km, 82.5° (Epoch: 01 December)

Event Time Altitude Azimuth Distance (km) Brightness Sun altitude
Rises 05:33:35 0° 168° (SSE) 2,583 6.1 -8.4°
Reaches altitude 10° 05:35:47 10° 160° (SSE) 1,705 5.3 -8.0°
Maximum altitude 05:39:14 36° 92° (E) 807 4.0 -7.5°
Drops below altitude 10° 05:42:42 10° 25° (NNE) 1,720 5.0 -6.9°
Sets 05:44:56 0° 17° (NNE) 2,610 5.8 -6.6°
